Location: Unspecified
(0.0000°N, 0.0000°E)
Time: 00:12:11
(UTC+00:00)

A-11 Canister half - Pass Details

Date: 15 February 2023
Orbit: 1526 x 1682 km, 47.3° (Epoch: 29 March)

Event Time Altitude Azimuth Distance (km) Brightness Sun altitude
Rises 11:01:39 0° 325° (NW) 4,730 11.3 68.0°
Reaches altitude 10° 11:04:42 10° 327° (NNW) 3,766 11.0 68.6°
Maximum altitude 11:14:16 74° 51° (NE) 1,669 10.8 70.5°
Drops below altitude 10° 11:24:12 10° 135° (SE) 3,898 11.6 72.3°
Sets 11:27:24 0° 136° (SE) 4,902 11.9 72.8°
